Total_Precipitation_Accumulation
0.01 0.02 0.06 0.07 0.08 0.10 0.10 0.12 0.17 0.16 0.15 0.19 0.28 0.50 0.73 0.85 1.05 1.17 1.11 1.07 1.17 1.21 1.39 1.63 1.83 2.04 2.27 2.45 2.57 2.75 3.01 3.32 3.54 3.86 4.16 4.32 4.41 4.59 4.66 4.66 4.72 4.73 4.74 4.88
0.01 0.02 0.02 0.03 0.04 0.05 0.06 0.10 0.14 0.14 0.16 0.19 0.31 0.51 0.73 0.83 0.97 1.14 1.19 1.20 1.20 1.30 1.40 1.76 2.08 2.51 2.75 2.81 2.83 3.05 3.37 3.67 3.83 4.22 4.69 5.08 5.20 5.28 5.31 5.28 5.43 5.54 5.57 5.70
0.03 0.02 0.01 0.02 0.02 0.03 0.05 0.08 0.11 0.16 0.19 0.27 0.42 0.74 0.95 0.96 1.11 1.22 1.26 1.41 1.37 1.40 1.63 1.89 2.24 2.51 2.68 2.78 2.88 3.05 3.48 3.94 4.38 4.85 5.36 5.79 6.01 6.05 5.94 5.65 5.72 5.85 5.77 5.82
0.02 0.01 0.01 0.02 0.03 0.03 0.05 0.06 0.08 0.12 0.19 0.32 0.39 0.88 1.27 1.32 1.39 1.32 1.34 1.46 1.40 1.40 1.61 1.89 2.11 2.38 2.52 2.66 2.89 3.08 3.45 4.10 4.60 4.97 5.59 6.19 6.45 6.65 6.77 6.55 6.22 5.97 5.73 5.60
0.02 0.02 0.03 0.03 0.04 0.04 0.05 0.05 0.08 0.09 0.13 0.25 0.29 0.68 1.40 1.58 1.65 1.52 1.48 1.53 1.37 1.29 1.46 1.76 1.87 2.12 2.40 2.50 2.62 2.85 3.38 3.98 4.65 5.28 5.82 6.35 6.78 6.97 6.95 6.56 6.13 5.61 5.22 4.80
0.03 0.02 0.02 0.03 0.03 0.03 0.05 0.05 0.10 0.12 0.19 0.36 0.34 0.60 1.40 1.81 2.00 2.05 1.74 1.51 1.35 1.25 1.33 1.43 1.54 1.71 2.02 2.13 2.33 2.59 3.02 3.77 4.49 5.09 5.69 6.15 6.54 6.57 6.25 5.73 5.23 4.91 4.53 4.04
0.06 0.05 0.04 0.03 0.04 0.04 0.05 0.12 0.31 0.47 0.55 0.55 0.44 0.71 1.47 1.72 1.65 1.64 1.66 1.68 1.50 1.22 1.19 1.29 1.33 1.47 1.66 1.82 2.10 2.46 2.96 3.56 4.03 4.53 5.02 5.35 5.59 5.66 5.57 5.23 4.81 4.51 4.09 3.65
0.16 0.15 0.07 0.03 0.05 0.07 0.06 0.14 0.47 0.67 0.71 0.74 0.77 1.17 1.79 1.63 1.34 1.29 1.41 1.49 1.36 1.26 1.26 1.41 1.51 1.59 1.69 1.82 1.99 2.35 2.81 3.23 3.45 3.68 4.06 4.34 4.49 4.55 4.44 4.19 3.84 3.57 3.28 2.99
0.19 0.20 0.08 0.04 0.05 0.05 0.08 0.13 0.24 0.33 0.41 0.70 1.12 1.63 2.17 2.04 1.53 1.33 1.37 1.33 1.25 1.25 1.26 1.44 1.59 1.70 1.78 1.82 1.96 2.09 2.35 2.58 2.81 3.00 3.16 3.27 3.32 3.26 3.15 2.95 2.70 2.51 2.33 2.09
0.20 0.19 0.12 0.06 0.07 0.09 0.12 0.16 0.21 0.37 0.64 0.97 1.28 1.86 2.58 2.55 1.99 1.59 1.50 1.44 1.31 1.24 1.30 1.44 1.51 1.59 1.64 1.58 1.66 1.74 1.93 2.04 2.20 2.33 2.36 2.24 2.25 2.24 2.10 1.94 1.85 1.71 1.54 1.42
0.26 0.26 0.16 0.10 0.12 0.17 0.15 0.18 0.28 0.40 0.50 0.97 1.50 2.23 2.48 2.64 2.42 2.03 1.63 1.40 1.29 1.25 1.24 1.27 1.31 1.35 1.37 1.30 1.30 1.38 1.53 1.73 1.82 1.82 1.84 1.75 1.69 1.57 1.47 1.38 1.34 1.26 1.18 1.15
0.24 0.33 0.32 0.19 0.15 0.13 0.15 0.20 0.32 0.56 0.60 0.73 1.27 2.35 2.47 2.75 2.63 2.27 1.88 1.57 1.42 1.36 1.25 1.18 1.15 1.13 1.13 1.09 1.09 1.16 1.22 1.31 1.35 1.39 1.38 1.37 1.31 1.22 1.17 1.13 1.09 1.10 1.07 1.04
0.19 0.40 0.64 0.67 0.55 0.26 0.17 0.19 0.24 0.35 0.55 0.80 1.30 2.32 2.50 2.43 2.32 2.24 2.03 1.74 1.53 1.45 1.28 1.24 1.17 1.10 1.11 1.17 1.18 1.06 1.06 1.11 1.13 1.15 1.15 1.13 1.17 1.14 1.10 1.12 1.13 1.11 1.07 1.05
0.13 0.40 0.81 1.15 1.07 0.55 0.37 0.28 0.27 0.37 0.71 0.87 1.17 1.79 2.10 2.11 2.13 2.23 2.23 1.88 1.48 1.34 1.25 1.28 1.29 1.26 1.19 1.19 1.29 1.18 1.06 1.05 1.13 1.10 1.08 0.99 0.96 0.99 1.01 1.03 1.06 1.03 0.99 1.00
0.20 0.47 0.46 0.43 0.42 0.41 0.41 0.36 0.35 0.40 0.47 0.82 1.20 1.64 2.04 2.16 2.11 2.06 1.95 1.73 1.43 1.34 1.40 1.36 1.29 1.30 1.25 1.19 1.22 1.19 1.14 1.08 1.25 1.22 1.18 1.08 0.98 0.98 1.00 1.00 0.97 0.93 0.89 0.84
0.24 0.46 0.43 0.40 0.31 0.35 0.41 0.42 0.45 0.52 0.58 0.80 1.27 1.86 2.20 2.25 2.14 2.09 2.02 1.85 1.74 1.66 1.60 1.57 1.47 1.45 1.44 1.36 1.33 1.26 1.22 1.20 1.27 1.32 1.38 1.40 1.30 1.24 1.21 1.11 0.99 0.96 0.95 0.87
0.26 0.46 0.62 0.63 0.36 0.52 0.88 0.71 0.66 0.76 0.83 1.04 1.61 1.92 1.89 1.97 2.09 2.21 2.28 2.16 2.02 1.92 1.83 1.81 1.75 1.68 1.66 1.62 1.54 1.45 1.36 1.32 1.32 1.38 1.42 1.40 1.38 1.37 1.32 1.16 1.03 1.01 0.97 0.94
0.27 0.49 0.65 0.70 0.75 1.32 1.23 0.68 0.69 0.90 1.03 1.13 1.37 1.48 1.52 1.58 1.69 1.80 1.93 2.02 2.01 1.86 1.78 1.77 1.80 1.78 1.76 1.66 1.57 1.50 1.41 1.38 1.38 1.40 1.41 1.37 1.26 1.26 1.20 1.10 1.07 1.02 0.94 0.92
0.19 0.42 0.69 0.80 1.09 1.31 1.16 0.69 0.70 1.10 1.61 1.32 1.25 1.15 1.07 1.06 1.21 1.57 1.74 1.81 1.96 1.99 1.89 1.84 1.79 1.69 1.66 1.61 1.54 1.48 1.46 1.43 1.42 1.40 1.31 1.24 1.15 1.13 1.06 1.03 0.96 0.88 0.81 0.79
0.21 0.33 0.69 0.89 1.30 1.60 1.48 0.69 0.51 0.94 1.97 1.51 1.29 1.15 1.06 1.18 1.47 1.56 1.51 1.51 1.58 1.68 1.73 1.62 1.48 1.39 1.42 1.45 1.44 1.42 1.41 1.39 1.36 1.17 0.99 0.93 0.94 0.93 0.89 0.83 0.78 0.74 0.72 0.71
0.57 0.63 0.80 0.99 1.39 1.62 0.89 0.47 0.62 1.50 1.94 1.49 1.25 1.12 1.08 1.31 1.43 1.24 1.17 1.23 1.25 1.29 1.27 1.19 1.14 1.19 1.26 1.27 1.22 1.22 1.18 1.17 1.11 1.00 0.86 0.82 0.80 0.75 0.72 0.70 0.70 0.67 0.63 0.66
0.71 0.85 0.93 1.08 1.48 1.64 0.72 0.54 0.95 1.19 1.00 1.00 0.99 0.94 0.90 0.87 0.83 0.88 0.91 0.95 0.91 0.91 0.93 0.89 0.92 0.98 1.02 0.99 0.99 1.07 1.07 0.98 0.90 0.92 0.86 0.81 0.71 0.60 0.60 0.70 0.70 0.67 0.68 0.71
0.65 0.77 0.88 1.06 1.30 1.07 0.60 0.57 0.65 0.69 0.75 0.74 0.73 0.69 0.59 0.54 0.53 0.63 0.65 0.64 0.63 0.64 0.69 0.72 0.74 0.79 0.86 0.87 0.89 0.95 0.96 0.87 0.85 0.91 0.89 0.77 0.64 0.65 0.65 0.69 0.69 0.62 0.59 0.54
0.65 0.50 0.59 0.74 0.85 0.69 0.56 0.53 0.50 0.47 0.50 0.48 0.51 0.52 0.44 0.43 0.48 0.54 0.54 0.52 0.48 0.51 0.54 0.61 0.63 0.63 0.71 0.73 0.77 0.83 0.77 0.74 0.89 0.98 0.92 0.77 0.66 0.61 0.58 0.57 0.52 0.47 0.46 0.44
0.65 0.57 0.59 0.73 0.77 0.72 0.69 0.49 0.40 0.35 0.33 0.33 0.37 0.40 0.37 0.37 0.43 0.44 0.44 0.46 0.47 0.49 0.52 0.56 0.61 0.60 0.57 0.59 0.65 0.63 0.63 0.74 0.97 0.96 0.84 0.72 0.59 0.52 0.48 0.39 0.32 0.28 0.26 0.24
0.42 0.52 0.61 0.68 0.61 0.71 0.76 0.55 0.39 0.37 0.33 0.31 0.29 0.31 0.35 0.38 0.41 0.38 0.37 0.39 0.42 0.44 0.46 0.54 0.54 0.49 0.52 0.57 0.59 0.56 0.56 0.65 0.85 0.87 0.69 0.57 0.48 0.41 0.34 0.30 0.27 0.20 0.15 0.13